Погода в Бисере

Погода в Бисере : погода сейчас, прогноз погоды и архив. Всё, что Вы хотите узнать о погоде в Бисере!

Поиск расширенной информации на нашем сайте:

Другие новости

Новости СМИ2

Главная страница сайта

Новости сайта

03.07.2017

Напоминаем, что на нашем специализированном сайте Метеоцентр.Азия вы можете получить высокодетализированные автоматические прогнозы погоды по пунктам России, СНГ и мира в авиационном формате (включающие направление и скорость ветра, видимость, явления погоды, количество и форму облачности, нижнюю и верхнюю границу облачности).

Рекомендуем: подключение оплаты банковскими картами

Погода в Бисере - сегодня

Время (UTC), дата Ветер
(°,м/с) 
Видим.   Явления Облачность Т
(°С)
Тd
(°С)
f(%) Тe
(°С)
Pmin
(гПа)
dP
(гПа)
Po
(мм)
O2
(г/м3)
Тmin Tmax R s Состояние
почвы
03 24.07.17 тихо ()   20000 м    9/0 верхняя 
[Ci fib]
+16.6 +14.2 86 +25  1006.8  -0.3  715  269  +10.5        влажная 
06 24.07.17 160 (Ю) 20000 м    9/9 600 м 
[Sc]
+18.5 +13.8 74 +27  1005.5  -0.9  715  267           
09 24.07.17 150 (ЮВ) 20000 м    10/10 600 м кучево-дожд. 
[Cb calv]
+19.3 +11.9 62 +25  1004.8  -0.9  714  266           
12 24.07.17 170 (Ю) 10 км  слаб. ливневой дождь  10/10 600 м кучево-дожд. 
[Cb calv]
+15 +13.7 92 +23  1005.9  0.4  715  270           
15 24.07.17 140 (ЮВ) 4000 м  дымка{ливн. осадки}  10/10 600 м кучево-дожд. 
[Cb calv]
+15.1 +14.5 96 +25  1004.9  -1  714  269    +20.3     
18 24.07.17 250 (З) 4000 м  в посл. час ливневой дождь  8/8 600 м 
[Sc]
+13.7 +12.1 90 +20  1005.2  714  271           
21 24.07.17 220 (ЮЗ) 2000 м  дымка  3/3 2000 м средняя 
[Ac lent]
+11.5 +11 97 +17  1005.7  714  274           
00 25.07.17 020 (С) 0050 м  туман  ?/?  
+11.3 +10.9 97 +15  1005.2  -0.5  713  274           
03 25.07.17 220 (ЮЗ) 0200 м  туман  ?/?  
+11.6 +11.2 97 +17  1005.1  713  274  +10    0.5    влажная 
06 25.07.17 170 (Ю) 20000 м  {туман}  8/4 600 м верхняя 
[Sc|Ci fib]
+17.5 +10.9 65 +21  1003.1  -0.8  713  268           
09 25.07.17 190 (Ю) 20000 м    9/9 600 м 
[Sc]
+18.7 +9.6 55 +22  1001.9  -0.9  712  267           
12 25.07.17 230 (ЮЗ) 20000 м    9/8 600 м верхняя 
[Sc|Ci fib]
+18.4 +11.7 65 +24  1001.8  0.1  712  266           
15 25.07.17 160 (Ю) 20000 м  в посл. час ливневой дождь  9/9 600 м кучево-дожд. 
[Cb calv]
+15 +11.7 81 +20  1002.3  0.1  712  270    +19.8       
18 25.07.17 тихо ()   4000 м  дымка{ливн. осадки}  9/9 600 м 
[Sc diur, vesp]
+13.2 +12.2 94 +19  1002.1  -0.5  712  271           
21 25.07.17 тихо ()   4000 м  дымка  8/8 600 м 
[Sc]
+11.8 +11.2 96 +16  1001.5  -0.8  711  272           
00 26.07.17 тихо ()   4000 м  дымка  10/10 600 м 
[Sc]
+11.8 +11.3 97 +16  1001  -0.5  711  272           
03 26.07.17 тихо ()   4000 м  в посл. час туман  10/10 600 м 
[Sc]
+13.2 +12.7 97 +19  1000.7  711  270  +11.5    0.3    влажная 
06 26.07.17 060 (СВ) 20000 м  {туман}  9/9 600 м 
[Cu med, cong]
+16.2 +12.1 77 +23  1000.3  0.1  711  268           
09 26.07.17 260 (З) 10 км  слаб. ливневой дождь  10/10 600 м кучево-дожд. 
[Cb calv]
+13.4 +13 97 +22  1001.9  1.1  711  271           
12 26.07.17 320 (СЗ) 20000 м  {ливн. осадки}  9/9 600 м кучево-дожд. 
[Cb calv]
+15.5 +12.9 84 +23  1002  0.4  712  269           
15 26.07.17 040 (СВ) 20000 м  в посл. час гроза  8/6 600 м средняя 
[Cu med, cong|Ac lent]
+16.5 +12.6 78 +24  1002.3  0.5  712  268    +17.4  19     
18 26.07.17 010 (С) 4000 м  в посл. час ливневой дождь{гроза}  9/8 600 м кучево-дожд., верхняя 
[Cb calv|Ci fib]
+12.5 +11.9 96 +19  1003.8  0.7  713  272           
21 26.07.17 030 (СВ) 2000 м  дымка  10/8 600 м верхняя 
[Sc|Ci fib]
+10.2 +9.8 97 +13  1004.7  0.4  713  275           
00 27.07.17 050 (СВ) 4000 м  дымка  6/4 600 м верхняя 
[Sc|Ci fib]
+11.5 +11.2 98 +16  1005.5  714  274           
03 27.07.17 360 (С) 4000 м  дымка  10/10 600 м 
[Sc]
+13.1 +12.6 97 +20  1006.9  1.6  715  272  +10      влажная 
Время (UTC), дата Ветер
(°,м/с) 
Видим.   Явления Облачность Т
(°С)
Тd
(°С)
f(%) Тe
(°С)
Pmin
(гПа)
dP
(гПа)
Po
(мм)
O2
(г/м3)
Тmin Tmax R s Состояние
почвы

Для получения пояснительной информации подведите курсор к названию столбца.

ПОГОДА в Бисере - архив

Всё, что Вы хотите узнать о погоде в Бисере - удобно и подробно!

Выберите нужную дату (начиная с 1 января 2015* года) и нажмите кнопку "Найти".
Будут отображены архивные сводки погоды по пункту Бисер, начиная с указанной даты.


Отображать данные в формате CSV (для использования в таблицах Excel)


Внимание! Наш архив погоды предназначен исключительно для личного некоммерческого использования в познавательных целях. Если Вам необходимы официальные справки о состоянии погоды (для производственных, юридических, коммерческих и т.п. целей), обращайтесь в органы Росгидромета.

*Примечание: данная дата относится к архиву по метеостанциям СССР (Россия, СНГ, Балтия).
Архив по метеостанциям Зарубежной Европы и Азии (кроме Китая) хранится 10 дней, по другим регионам земного шара (Китай, Африка, Америка, Австралия, Океания) - 1 день.

Бисер - район местоположения метеостанции


Название, широта, долгота, высота метеостанции:
Бисер 58.5°ш. 58.9°д. 463 м над ур. моря [Российская Федерация]

Дополнительная информация

В oтличие oт бoльшинства пoгoдных сайтoв мы публикуем пoдрoбную метеoинфoрмацию в детальнoм прoфессиoнальнoм фoрмате.

Характеристики температуры и влажнoсти вoздуха измеряются на высoте 2 м в тени вдали oт зданий и деревьев.
Скoрoсть ветра измеряется на высoте 10 м (на урoвне рoста челoвека скoрoсть ветра ниже в 1.5-2 раза). Если метеoстанция нахoдится в гoрoде или в лесу, тo скoрoсть ветра занижена на 2-4 м/с пo сравнению с oткрытым местoм. Скoрoсть ветра над акватoриями крупных рек и oзёр, а также на вершинах хoлмoв на 2-5 м/с выше, чем в oбычных услoвиях.
Атмoсфернoе давление в разных тoчках местнoсти мoжет значительнo oтличаться oт давления на метеoстанции, в зависимoсти oт услoвий рельефа (при пoдъёме на 10 м давление пoнижается примернo на 1 мм рт.ст.).